Topeka, KS

9:12 AM CDT on April 29, 2017 (GMT -0500)
Billard Municipal

Weather History for KTOP - September, 2012

Change the Weather History Date:

Monday, September 17, 2012

  Actual Average Record
Temperature  
Mean Temperature 65 °F 68 °F  
Max Temperature 81 °F 80 °F 103 °F (1953)
Min Temperature 48 °F 56 °F 39 °F (1981)
Degree Days  
Heating Degree Days 0 2  
Month to date heating degree days 15 16  
Since 1 July heating degree days 15 18  
Cooling Degree Days 0 5  
Month to date cooling degree days 129 120  
Year to date cooling degree days 1918 1348  
Growing Degree Days 17 (Base 50)    
Moisture  
Dew Point 58 °F    
Average Humidity 76    
Maximum Humidity 100    
Minimum Humidity 51    
Precipitation  
Precipitation T in 0.12 in 2.51 in (1978)
Month to date precipitation 0.46 2.07  
Year to date precipitation 19.46 28.64  
Snow  
Snow 0.00 in 0.00 in 0.00 in ()
Month to date snowfall 0.0 0.0  
Year to date snowfall 3.0 11.3  
Since 1 July snowfall 0.0 0.0  
Snow Depth 0.00 in    
Sea Level Pressure  
Sea Level Pressure 29.93 in    
Wind  
Wind Speed 4 mph (NNE)    
Max Wind Speed 25 mph    
Max Gust Speed 35 mph    
Visibility 6 miles    
Events Fog , Rain , Thunderstorm    
T = Trace of Precipitation, MM = Missing Value Source: NWS Daily Summary

Daily Weather History Graph

Daily Weather History Graph

Search for Another Location

Airport or City:

Trip Planner

Search our weather history database for the weather conditions in past years. The results will help you decide how hot, cold, wet, or windy it might be!

Date:

Astronomy

Sep. 17, 2012 Rise Set
Actual Time 7:06 AM CDT 7:26 PM CDT
Civil Twilight 6:39 AM CDT 7:53 PM CDT
Nautical Twilight 6:07 AM CDT 8:24 PM CDT
Astronomical Twilight 5:35 AM CDT 8:56 PM CDT
Moon 8:55 AM CDT (9/17) 8:11 PM CDT (9/17)
Length of Visible Light 13h 14m
Length of Day
12h 20m
Waxing Crescent, 3% of the Moon is Illuminated
Sep 17
Waxing Crescent
Sep 22
First Quarter
Sep 29
Full
Oct 8
Last Quarter
Oct 15
New

Hourly Weather History & Observations

Time (CDT) Temp. Heat Index Dew Point Humidity Pressure Visibility Wind Dir Wind Speed Gust Speed Precip Events Conditions
12:53 AM 62.1 °F - 60.1 °F 93% 29.94 in 10.0 mi Calm Calm - N/A   Mostly Cloudy
1:53 AM 62.1 °F - 60.1 °F 93% 29.93 in 10.0 mi East 3.5 mph - N/A   Mostly Cloudy
2:53 AM 61.0 °F - 60.1 °F 97% 29.91 in 10.0 mi Calm Calm - N/A   Scattered Clouds
3:02 AM 60.8 °F - 59.0 °F 94% 29.92 in 1.5 mi Calm Calm - N/A   Partly Cloudy
3:07 AM 60.8 °F - 59.0 °F 94% 29.92 in 0.5 mi Calm Calm - N/A Fog Fog
3:31 AM 60.8 °F - 59.0 °F 94% 29.91 in 0.2 mi Calm Calm - N/A Fog Fog
3:53 AM 59.0 °F - 59.0 °F 100% 29.90 in 0.2 mi Calm Calm - N/A Fog Fog
4:53 AM 59.0 °F - 57.9 °F 96% 29.91 in 0.2 mi Calm Calm - N/A Fog Fog
5:02 AM 59.0 °F - 57.2 °F 94% 29.92 in 0.2 mi Calm Calm - N/A Fog Fog
5:09 AM 59.0 °F - 57.2 °F 94% 29.92 in 1.0 mi Calm Calm - N/A   Overcast
5:13 AM 60.8 °F - 59.0 °F 94% 29.92 in 3.0 mi ENE 3.5 mph - N/A   Mostly Cloudy
5:32 AM 59.0 °F - 57.2 °F 94% 29.92 in 1.5 mi Calm Calm - N/A   Mostly Cloudy
5:37 AM 59.0 °F - 57.2 °F 94% 29.92 in 0.5 mi Calm Calm - N/A Fog Fog
5:50 AM 59.0 °F - 57.2 °F 94% 29.93 in 0.2 mi Calm Calm - N/A Fog Fog
5:53 AM 57.9 °F - 57.0 °F 97% 29.91 in 0.2 mi Calm Calm - N/A Fog Fog
6:53 AM 59.0 °F - 57.2 °F 94% 29.93 in 0.2 mi Calm Calm - N/A Fog Fog
7:53 AM 61.0 °F - 60.1 °F 97% 29.91 in 0.2 mi Calm Calm - N/A Fog Fog
8:53 AM 63.0 °F - 62.1 °F 97% 29.91 in 0.2 mi East 3.5 mph - N/A Fog Fog
9:27 AM 64.4 °F - 62.6 °F 94% 29.91 in 1.0 mi Calm Calm - N/A   Overcast
9:35 AM 64.4 °F - 62.6 °F 94% 29.92 in 3.0 mi Calm Calm - N/A   Mostly Cloudy
9:53 AM 64.9 °F - 63.0 °F 93% 29.91 in 7.0 mi Calm Calm - N/A   Mostly Cloudy
10:53 AM 73.0 °F - 62.1 °F 68% 29.90 in 10.0 mi Calm Calm - N/A   Clear
11:53 AM 75.0 °F - 59.0 °F 57% 29.90 in 10.0 mi SSW 4.6 mph - N/A   Overcast
12:53 PM 75.9 °F - 60.1 °F 58% 29.89 in 10.0 mi Calm Calm - N/A   Mostly Cloudy
1:53 PM 80.1 °F 81.1 °F 61.0 °F 52% 29.88 in 10.0 mi NNE 3.5 mph - N/A   Mostly Cloudy
2:53 PM 78.1 °F - 60.1 °F 54% 29.86 in 10.0 mi NE 4.6 mph - N/A   Overcast
3:40 PM 66.2 °F - 59.0 °F 78% 29.88 in 10.0 mi North 20.7 mph 28.8 mph 0.00 in Rain , Thunderstorm Light Rain
3:53 PM 66.9 °F - 59.0 °F 76% 29.87 in 10.0 mi North 17.3 mph 20.7 mph 0.00 in Rain , Thunderstorm Light Rain
4:15 PM 69.8 °F - 57.2 °F 64% 29.88 in 10.0 mi NNE 19.6 mph 27.6 mph N/A   Clear
4:53 PM 69.1 °F - 55.9 °F 63% 29.90 in 10.0 mi North 17.3 mph 26.5 mph N/A   Mostly Cloudy
5:53 PM 64.0 °F - 53.1 °F 67% 29.94 in 10.0 mi North 16.1 mph 23.0 mph N/A   Overcast
6:16 PM 62.6 °F - 53.6 °F 72% 29.97 in 10.0 mi NNE 12.7 mph 20.7 mph N/A   Overcast
6:44 PM 60.8 °F - 53.6 °F 77% 29.97 in 10.0 mi North 13.8 mph 24.2 mph N/A   Overcast
6:53 PM 61.0 °F - 53.1 °F 75% 29.96 in 10.0 mi North 9.2 mph - N/A   Overcast
7:53 PM 60.1 °F - 54.0 °F 80% 29.98 in 10.0 mi North 6.9 mph - 0.00 in   Mostly Cloudy
8:53 PM 57.9 °F - 52.0 °F 81% 30.02 in 10.0 mi North 6.9 mph - N/A   Clear
9:53 PM 55.9 °F - 48.9 °F 77% 30.04 in 10.0 mi North 4.6 mph - N/A   Clear
10:53 PM 53.1 °F - 48.9 °F 86% 30.04 in 10.0 mi Calm Calm - N/A   Clear
11:53 PM 52.0 °F - 48.9 °F 89% 30.04 in 10.0 mi Calm Calm - N/A   Clear